UVSQ-SAT (47438 NORAD) Tracking and Keplerian Element Data

This shows tracking and keplerian element data for the satellite.

Feedback or suggestion? Click here.




ElementValue
Catalog47438
NameUVSQ-SAT
Epoch Orbit1166
Epoch Day99.73559437
Epoch Year2021
RAAN162.1706
Inclination97.4944
Eccentricity0.0012077
Argument of Perigee342.5612
Mean Anonmoly17.5203
Mean Motion15.12981083
Decay Rate8.64E-06
L11 47438U 21006AB 21099.73559437 .00000864 00000-0 52612-4 0 9997
L22 47438 97.4944 162.1706 0012077 342.5612 17.5203 15.12981083 11668

Live tracking and technical data element details for UVSQ-SAT (NORAD 47438). UVSQ-SAT can be tracked NOW for your location showing map with azimuth and elevation plus other details from your city location.

Track the satellite on the map from your city or location and see movement details for azimuth, elevation, latitude, longitude, range, height, and movement on the map or in text.







IsCatalogInMostPopularTable: catalog: 47438, numindb: 16
Update: records affected: 1



GetName: 47438 UVSQ-SAT

Hit Count: updated at: Sat, 10 Apr 2021 18:59:40 GMT